Miscellaneous Local Product
Issued by NWS North Platte, NE

Home | Current Version | Previous Version | Text Only | Print | Product List | Glossary On
Versions: 1 2 3 4 5 6 7 8 9 10 11 12 13 14 15 16 17 18 19 20 21 22 23 24 25 26 27 28 29 30 31 32 33 34 35 36 37 38 39 40 41 42 43 44 45 46 47 48 49 50
451
AXUS43 KLBF 291010
MISLBF


WESTERN AND NORTH CENTRAL NEBRASKA HOURLY WEATHER ROUNDUP
NATIONAL WEATHER SERVICE NORTH PLATTE NE
500 AM CDT MON MAY 29 2017

NOTE: "FAIR" INDICATES FEW OR NO CLOUDS BELOW 12,000 FEET WITH NO
SIGNIFICANT WEATHER AND/OR OBSTRUCTIONS TO VISIBILITY.

NOTE: STATIONS NOT REPORTING VARIABLES SUCH AS SKY/WEATHER OR
PRESSURE ARE PROVIDED BY RAWS AND APRS NETWORKS AND ARE NOT UNDER
NATIONAL WEATHER SERVICE QUALITY CONTROL.

...OBSERVATIONS IN AND NEAR THE EASTERN PANHANDLE OF NEBRASKA...

CITY           SKY/WX    TMP DP  RH WIND       PRES   REMARKS
PINE RIDGE     CLEAR     43  42  97 CALM      30.12R
GORDON         FAIR      43  40  90 NW8       30.11S
CHADRON        CLEAR     49  43  80 NW10      30.13R
ALLIANCE       CLEAR     42  40  92 W8        30.14S
SIDNEY         CLEAR     46  42  86 W10       30.19S
CRESCENT LAKE    N/A     48  44  86 W9          N/A
$$

...OBSERVATIONS IN NORTHERN NEBRASKA AND FAR SOUTHERN SOUTH DAKOTA...

CITY           SKY/WX    TMP DP  RH WIND       PRES   REMARKS
WINNER         FAIR      48  42  80 W8        30.03R
VALENTINE      CLEAR     48  42  80 NW9       30.06R
THEDFORD       CLEAR     49  46  87 W8        30.08R
AINSWORTH      CLEAR     48  46  93 W7        30.04R
O`NEILL        CLEAR     51  45  78 W8        29.99R
ORD            CLEAR     52  45  77 NW8       30.00R
BROKEN BOW     CLEAR     52  46  80 NW9       30.03R
VALENTINE NWR    N/A     48  45  88 NW6         N/A
HALSEY           N/A     52  46  79 W8G15       N/A
BUTTE            N/A     49  44  84 NW8         N/A
CHAMBERS         N/A     50  45  83 CALM        N/A
EWING            N/A     50  45  84 W3          N/A
$$

...OBSERVATIONS IN SOUTHWEST NEBRASKA AND FAR NORTHEAST COLORADO...

CITY           SKY/WX    TMP DP  RH WIND       PRES   REMARKS
WRAY           FAIR      46  46 100 W6        30.17R
IMPERIAL       CLEAR     50  44  80 W10       30.13S
OGALLALA       CLEAR     48  45  88 W8        30.13S
NORTH PLATTE   CLEAR     47  45  93 NW8       30.08S
MCCOOK         CLEAR     51  46  83 W8        30.09S
LEXINGTON      CLEAR     51  46  83 W10       30.06R
STAPLETON        N/A     48  45  88 CALM        N/A
GOTHENBURG       N/A     50  43  75 W6          N/A
CALLAWAY         N/A     49  44  84 W9          N/A
$$

...OBSERVATIONS IN CENTRAL LINCOLN COUNTY AREA...

CITY           SKY/WX    TMP DP  RH WIND       PRES   REMARKS
N.P. AIRPORT   CLEAR     47  45  93 NW8       30.08S
N.P. DOWNTOWN    N/A     52  47  83 W3          N/A
N.P. SOUTHEAST   N/A     52  46  79 NW5G12      N/A
N.P. HILLCREST   N/A     47  44  88 NW6         N/A
$$

...SOME OBSERVATIONS FROM AROUND THE REGION...

CITY           SKY/WX    TMP DP  RH WIND       PRES   REMARKS
DENVER         MOCLDY    47  42  83 SW7       30.27S
LIMON          CLEAR     44  42  93 W9        30.25F
ASPEN          CLOUDY    36  28  73 SW9       30.31S WCI  29
LARAMIE        CLOUDY    34  33  96 SW7       30.32S WCI  28
CASPER         CLEAR     41  39  93 W5        30.25S
CHEYENNE       CLOUDY    43  36  76 W10       30.27F
SCOTTSBLUFF    CLEAR     48  42  80 NW5       30.18S
GRAND ISLAND   CLEAR     52  47  83 W8        30.01R
OMAHA          PTCLDY    58  44  60 N3        29.94R
SIOUX FALLS    CLEAR     50  45  83 NW8       29.91R
PIERRE         CLEAR     48  39  71 NW12      30.01R
RAPID CITY     CLEAR     43  36  76 NW7       30.13R
BISMARCK       CLOUDY    51  43  74 NW13G18   30.00R
KANSAS CITY    PTCLDY    56  52  86 SW7       29.94S
HILL CITY      CLEAR     54  49  83 W7        30.09R
WICHITA        CLEAR     56  47  71 SW5       30.00F
DODGE CITY     CLEAR     57  43  59 NW10      30.10S
OKLAHOMA CITY  CLOUDY    60  47  61 CALM      30.03F
DALLAS         CLOUDY    68  65  90 N10       29.95F
AMARILLO       CLEAR     52  36  54 S6        30.17F
$$




USA.gov is the U.S. government's official web portal to all federal, state and local government web resources and services.